Regional Weather Roundup
Issued by NWS

Home | Current Version | Previous Version | Graphics & Text | Print | Product List | Glossary On
Versions: 1 2 3 4 5 6 7 8 9 10 11 12 13 14 15 16 17 18 19 20 21 22 23 24 25 26 27 28 29 30 31 32 33 34 35 36 37 38 39 40 41 42 43 44 45 46 47 48 49 50
000
ASUS45 KABQ 220901
RWRNM
NEW MEXICO REGIONAL WEATHER ROUNDUP
NATIONAL WEATHER SERVICE ALBUQUERQUE NM
200 AM MST THU FEB 22 2018

NOTE: "FAIR" MEANS FEW OR NO CLOUDS BELOW 12,000 FEET AGL WITH NO
       SIGNIFICANT WEATHER OR OBSTRUCTIONS TO VISION.

      THIS PRODUCT IS RELEASED AS TWO VERSIONS.  ONE VERSION NEAR
      THE TOP OF THE HOUR CONTAINING PRELIMINARY DATA FROM ALBUQUERQUE
      AND OTHER STATIONS.  A FINAL VERSION WITH ADDITIONAL DATA IS
      ISSUED ABOUT 10 MINUTES AFTER THE HOUR.

NMZ501-503-504-510>518-221000-
NORTHWEST PLATEAU/NORTHCENTRAL MOUNTAINS

CITY           SKY/WX    TMP DP  RH WIND       PRES   REMARKS
FARMINGTON     CLOUDY    30  28  92 CALM      29.97S
LOS ALAMOS     FAIR      24  17  77 S5        30.00F WCI  18
SANTA FE       FAIR      27  15  61 VRB3      30.02F
TAOS           LGT SNOW  26  24  92 CALM      30.02F FOG
ANGEL FIRE     FLURRIES  26  23  88 CALM      29.98F

$$
NMZ402-403-502-505>509-221000-
WESTCENTRAL MOUNTAINS/SOUTHWEST MOUNTAINS

CITY           SKY/WX    TMP DP  RH WIND       PRES   REMARKS
GALLUP         LGT SNOW  28  26  92 SW17      30.00F VSB 1   WCI  16
GRANTS         CLOUDY    31  30  99 CALM      30.01S
SILVER CITY    MOCLDY    29  26  88 N6        30.03F WCI  23

$$
NMZ407-409-411-412-221000-
SOUTHERN DESERTS

CITY           SKY/WX    TMP DP  RH WIND       PRES   REMARKS
DEMING         FAIR      39  29  67 S6        30.03F WCI  35
LAS CRUCES     FAIR      39  24  55 S3        30.05S
HOLLOMAN AFB   FAIR      39  22  51 SE12      30.07F WCI  31
ALAMOGORDO     FAIR      36  23  60 CALM      30.06S
T OR C           N/A     46  27  47 S14       30.00S

$$
NMZ519>523-221000-
CENTRAL VALLEYS/CENTRAL HIGHLANDS

CITY           SKY/WX    TMP DP  RH WIND       PRES   REMARKS
ALBUQUERQUE    CLOUDY    33  24  69 N5        30.01F WCI  29
CLINES CORNERS FAIR      18   9  68 E8        30.05F WCI   8
BELEN          FAIR      39  23  51 S7        30.00S WCI  34
SOCORRO        FAIR      38  26  63 SW5       30.00S WCI  34

$$
NMZ524>526-539-540-221000-
SOUTHCENTRAL MOUNTAINS

CITY           SKY/WX    TMP DP  RH WIND       PRES   REMARKS
RUIDOSO        FAIR      23  10  58 CALM      30.09F

$$
NMZ527>531-221000-
NORTHEAST HIGHLANDS/NORTHEAST PLAINS

CITY           SKY/WX    TMP DP  RH WIND       PRES   REMARKS
LAS VEGAS      FAIR      16   6  65 S13       30.04F WCI   2
RATON          FAIR      13   4  67 W7        30.04S WCI   3
CLAYTON        FAIR      18  12  77 S12       30.10F WCI   5

$$
NMZ532>537-221000-
EASTCENTRAL PLAINS

CITY           SKY/WX    TMP DP  RH WIND       PRES   REMARKS
SANTA ROSA     FAIR      22   8  53 CALM      30.14S
TUCUMCARI      CLOUDY    26   8  46 S3        30.14F
CANNON AFB     FAIR      22  11  62 SE8       30.20R WCI  13
CLOVIS AIRPORT NOT AVBL

$$
NMZ028-029-538-221000-
SOUTHEAST PLAINS

CITY           SKY/WX    TMP DP  RH WIND       PRES   REMARKS
ROSWELL        FAIR      29  21  72 S9        30.18S WCI  20
ARTESIA        FAIR      27  21  80 SE8       30.19F WCI  18
CARLSBAD       FAIR      27  25  92 SE6       30.20S WCI  20
HOBBS          CLOUDY    27  25  93 SE7       30.20F WCI  19


$$




USA.gov is the U.S. government's official web portal to all federal, state and local government web resources and services.